This is the latest recevied weather packets stored in our database for station/object K4HOG. If no packets are shown the sender has not sent any weather packets the latest 10 day(s).
| Time | Temp. | Humidity | Pressure | Rain* | Wind** | Luminosity | Snow |
|---|---|---|---|---|---|---|---|
| 1777986356 | 21.67° C | 78% | 1016.3 hPa | 0 mm | - | 66 W/m² | - |
| 1777986054 | 21.67° C | 80% | 1016.2 hPa | 0 mm | - | 98 W/m² | - |
| 1777985750 | 21.67° C | 79% | 1016 hPa | 0 mm | - | 73 W/m² | - |
| 1777985447 | 21.11° C | 81% | 1016 hPa | 0 mm | - | 74 W/m² | - |
| 1777985144 | 20.56° C | 82% | 1016.1 hPa | 0 mm | - | 106 W/m² | - |
| 1777984840 | 20.56° C | 83% | 1015.9 hPa | 0 mm | - | 112 W/m² | - |
| 1777984537 | 20° C | 83% | 1016.2 hPa | 0 mm | - | 119 W/m² | - |
| 1777984232 | 19.44° C | 84% | 1016.1 hPa | 0 mm | - | 111 W/m² | - |
| 1777983930 | 19.44° C | 85% | 1015.9 hPa | 0 mm | - | 83 W/m² | - |
| 1777983627 | 18.89° C | 85% | 1016.1 hPa | 0 mm | - | 79 W/m² | - |
| 1777983323 | 19.44° C | 84% | 1016.1 hPa | 0 mm | - | 75 W/m² | - |
| 1777983020 | 19.44° C | 86% | 1016.2 hPa | 0 mm | - | 110 W/m² | - |
| 1777982716 | 18.89° C | 90% | 1016.1 hPa | 0 mm | - | 100 W/m² | - |
| 1777982412 | 17.78° C | 94% | 1016.2 hPa | 0 mm | - | 86 W/m² | - |
| 1777982107 | 17.22° C | 95% | 1016.1 hPa | 0 mm | - | 76 W/m² | - |
| 1777981805 | 16.67° C | 96% | 1015.8 hPa | 0 mm | - | 74 W/m² | - |
| 1777981502 | 16.67° C | 97% | 1015.8 hPa | 0 mm | - | 66 W/m² | - |
| 1777981198 | 16.67° C | 97% | 1015.7 hPa | 0 mm | - | 55 W/m² | - |
| 1777980894 | 15.56° C | 98% | 1015.8 hPa | 0 mm | - | 49 W/m² | - |
| 1777980590 | 15.56° C | 98% | 1015.9 hPa | 0 mm | - | 43 W/m² | - |
| 1777980288 | 15° C | 98% | 1015.7 hPa | 0 mm | - | 36 W/m² | - |
| 1777979984 | 14.44° C | 98% | 1015.6 hPa | 0 mm | - | 27 W/m² | - |
| 1777979678 | 14.44° C | 97% | 1015.8 hPa | 0 mm | - | 19 W/m² | - |
| 1777979375 | 14.44° C | 97% | 1015.5 hPa | 0 mm | - | 15 W/m² | - |
| 1777979072 | 14.44° C | 97% | 1015.6 hPa | 0 mm | - | 13 W/m² | - |
* Rain latest hour (hover to see other rain measurements)
** Current wind speed in m/s (hover to see current wind gust speed)